Regional Weather Roundup
Issued by NWS

Home | Current Version | Previous Version | Graphics & Text | Print | Product List | Glossary On
Versions: 1 2 3 4 5 6 7 8 9 10 11 12 13 14 15 16 17 18 19 20 21 22 23 24 25 26 27 28 29 30 31 32 33 34 35 36 37 38 39 40 41 42 43 44 45 46 47 48 49 50
000
ASUS43 KLOT 012321
RWRIL

ILLINOIS REGIONAL WEATHER ROUNDUP
NATIONAL WEATHER SERVICE CHICAGO/ROMEOVILLE IL
600 PM CDT WED APR 01 2015

NOTE: "FAIR" INDICATES FEW OR NO CLOUDS BELOW 12,000 FEET WITH NO
SIGNIFICANT WEATHER AND/OR OBSTRUCTIONS TO VISIBILITY.

* THESE STATIONS ARE NOT UNDER NWS QUALITY CONTROL. THEY ALSO MAY NOT
  REPORT WEATHER SUCH AS PRECIPITATION OR FOG.

ILZ001-002-007-009-015-016-024-020000-
NORTHWEST ILLINOIS

CITY           SKY/WX    TMP DP  RH WIND       PRES   REMARKS
MOLINE         SUNNY     75  33  21 S18G31    29.79S
STERLING*      SUNNY     73  36  25 S10G24    29.82S
SAVANNA*       SUNNY     77  31  18 S24G32    29.78S
$$

ILZ003-004-008-010-011-017-018-020000-
NORTH CENTRAL ILLINOIS

CITY           SKY/WX    TMP DP  RH WIND       PRES   REMARKS
ROCKFORD       PTSUNNY   74  36  25 S18G30    29.82F
FREEPORT*      SUNNY     73  36  26 S20G30    29.82S
ROCHELLE*      SUNNY     73  37  26 S25G32    29.84F
DE KALB*       SUNNY     70  38  30 S29       29.85F
PERU*          SUNNY     73  37  26 S25G33    29.86F
$$

ILZ005-006-012>014-019>023-020000-
NORTHEAST ILLINOIS

CITY           SKY/WX    TMP DP  RH WIND       PRES   REMARKS
CHICAGO-OHARE  MOSUNNY   71  36  27 S21G28    29.86F
CHICAGO-MIDWAY MOSUNNY   73  36  25 S18G28    29.89F
AURORA         SUNNY     73  36  25 S16G28    29.86F
LANSING*       SUNNY     69  33  26 S17       29.92F
JOLIET*        SUNNY     73  39  28 S14G24    29.89F
WAUKEGAN       SUNNY     56  37  49 SE8       29.85F
DUPAGE AIRPORT SUNNY     72  36  26 S23G30    29.86F
KANKAKEE*      SUNNY     70  39  33 S16G22    29.93F
WHEELING       SUNNY     71  35  26 S20G26    29.87F
MORRIS*        SUNNY     73  37  26 S22G29    29.88S
ROMEOVILLE*    SUNNY     71  36  28 S18G24    29.88F
NORTHERLY ISL    N/A     70  35  27 S13         N/A
$$

LMZ740>746-020000-
SOUTHERN LAKE MICHIGAN

STATION/POSITION SKY/WX   TEMP    WIND        PRES    VSBY  WAVE
                          AIR SEA DIR/SP/G                  HT/PER
                          (F)     (DEG/KT/KT) (MB)    (MI)  (FT/S)
HARRISON CRIB              64     170/ 26/ 28   N/A
BURNHAM HARBOR             71     180/  9/ 21   N/A
CALUMET HARBOR             70     160/ 19/ 24 1011.8F
BURNS HARBOR               67     190/ 15/ 20 1013.9F
MICHIGAN CITY              68     150/ 16/ 20   N/A
$$

ILZ025>027-034>036-040-047-049-050-058-095>099-020000-
WEST-CENTRAL ILLINOIS

CITY           SKY/WX    TMP DP  RH WIND       PRES   REMARKS
QUINCY         PTSUNNY   74  36  25 S14       29.83F
GALESBURG*     MOSUNNY   73  35  25 S21G28    29.84R
MACOMB*        MOSUNNY   74  34  23 S25G33    29.86F
JACKSONVILLE*  SUNNY     75  38  26 SE20G26   29.88F
PITTSFIELD*    MOSUNNY   73  38  27 SE17      29.87F
$$

ILZ028>032-037-038-041>044-048-051>054-059>061-020000-
CENTRAL ILLINOIS

CITY           SKY/WX    TMP DP  RH WIND       PRES   REMARKS
PONTIAC        SUNNY     73  40  31 S20G29    29.91F
BLOOMINGTON    MOSUNNY   72  42  33 S26       29.92F
DECATUR        PTSUNNY   71  40  32 S17       29.94F
PEORIA         MOSUNNY   74  36  25 S24G32    29.87F
LACON*         SUNNY     73  37  27 S15G23    29.86S
LINCOLN*       PTSUNNY   73  39  29 S17G25    29.89F
SPRINGFIELD    PTSUNNY   73  39  29 S20G28    29.91S
TAYLORVILLE    PTSUNNY   70  39  32 S14G22    29.92F
$$

ILZ033-039-045-046-055>057-062-063-020000-
EAST-CENTRAL ILLINOIS

CITY           SKY/WX    TMP DP  RH WIND       PRES   REMARKS
CHAMPAIGN      MOSUNNY   70  39  32 S17       29.96S
DANVILLE*      SUNNY     67  40  37 S15       29.95S
RANTOUL*       SUNNY     71  40  33 S17       29.95F
MATTOON        PTSUNNY   67  40  37 S15       29.97S
PARIS*         MOSUNNY   66  42  42 S13       29.99F
$$

ILZ079-100>102-020000-
SOUTHWEST ILLINOIS

CITY           SKY/WX    TMP DP  RH WIND       PRES   REMARKS
ALTON          PTSUNNY   72  28  20 S17       29.91S
BELLEVILLE     PTSUNNY   72  42  33 S7        29.91S
CAHOKIA*       PTSUNNY   73  40  30 S12G20    29.91S
SPARTA*        CLOUDY    72  38  29 S13       29.95R
$$

ILZ064>066-069>071-074>076-080>082-084>086-088>090-092>094-020000-
SOUTH-CENTRAL ILLINOIS

CITY           SKY/WX    TMP DP  RH WIND       PRES   REMARKS
CARBONDALE     CLOUDY    71  39  31 S12       29.95S
CAIRO*         CLOUDY    73  43  33 S5        29.95S
EFFINGHAM*     MOSUNNY   70  33  24 SE12G22   29.98F
MARION         PTSUNNY   73  36  25 S17       29.95
MT. VERNON     MOSUNNY   72  37  28 SE9       29.96S
CENTRALIA*     MOSUNNY   72  37  27 SE10      29.95S
SALEM*         MOSUNNY   74  33  21 SE10G22   29.95F
METROPOLIS*    CLOUDY    74  40  29 CALM      29.95S
$$

ILZ067-068-072-073-078-083-087-091-020000-
SOUTHEAST ILLINOIS

CITY           SKY/WX    TMP DP  RH WIND       PRES   REMARKS
LAWRENCEVILLE  MOSUNNY   71  38  29 S14       30.00F
FLORA*         MOSUNNY   70  40  32 SE13      29.98F
FAIRFIELD*     MOSUNNY   71  40  32 SE15      29.96F
HARRISBURG*    PTSUNNY   72  42  33 SE10G17   29.98F
ROBINSON*      MOSUNNY   69  37  30 SE13      30.01S
CARMI*         SUNNY     72  31  22 SE13      29.98F
$$

ABBREVIATIONS USED IN REMARKS
   TC - TEMPERATURE IN CELSIUS
  WCI - WIND CHILL INDEX
   HX - HEAT INDEX
  VSB - VISIBILITY
$$




USA.gov is the U.S. government's official web portal to all federal, state and local government web resources and services.